| time (UTC) | temp F | wind direction | speed MPH | gust MPH | rain 1hr in | rain 24hr in | rain mn in | humidity % | barometer mb |
| 20260510131545 | 65 | 234 | 0.0 | 2.0 | 0.00 | 0.00 | 0.00 | 97 | 1015.9 |
| 20260510130049 | 65 | 0 | 0.0 | 2.0 | 0.00 | 0.00 | 0.00 | 97 | 1015.8 |
| 20260510124606 | 65 | 0 | 0.0 | 4.0 | 0.00 | 0.00 | 0.00 | 97 | 1015.8 |
| 20260510123046 | 64 | 130 | 1.0 | 6.0 | 0.00 | 0.00 | 0.00 | 97 | 1015.4 |
| 20260510121543 | 63 | 0 | 0.0 | 1.0 | 0.00 | 0.00 | 0.00 | 96 | 1015.3 |
| 20260510120044 | 62 | 0 | 0.0 | 1.0 | 0.00 | 0.00 | 0.00 | 96 | 1015.5 |
| 20260510114544 | 62 | 0 | 0.0 | 0.0 | 0.00 | 0.00 | 0.00 | 95 | 1015.0 |
| 20260510113052 | 62 | 0 | 0.0 | 0.0 | 0.00 | 0.00 | 0.00 | 95 | 1014.8 |
| 20260510111603 | 62 | 0 | 0.0 | 0.0 | 0.00 | 0.00 | 0.00 | 95 | 1015.0 |
| 20260510110046 | 62 | 0 | 0.0 | 0.0 | 0.00 | 0.00 | 0.00 | 95 | 1015.0 |
| 20260510104600 | 62 | 0 | 0.0 | 0.0 | 0.00 | 0.00 | 0.00 | 95 | 1015.0 |
| 20260510103048 | 62 | 0 | 0.0 | 0.0 | 0.00 | 0.00 | 0.00 | 94 | 1015.2 |
| 20260510101551 | 62 | 0 | 0.0 | 0.0 | 0.00 | 0.00 | 0.00 | 95 | 1015.2 |
| 20260510100045 | 62 | 0 | 0.0 | 0.0 | 0.00 | 0.00 | 0.00 | 95 | 1015.4 |
| 20260510094547 | 61 | 0 | 0.0 | 0.0 | 0.00 | 0.00 | 0.00 | 95 | 1015.0 |
| 20260510093049 | 61 | 0 | 0.0 | 0.0 | 0.00 | 0.00 | 0.00 | 94 | 1015.1 |
| 20260510091557 | 61 | 0 | 0.0 | 0.0 | 0.00 | 0.00 | 0.00 | 94 | 1015.2 |
| 20260510090100 | 61 | 0 | 0.0 | 0.0 | 0.00 | 0.00 | 0.00 | 93 | 1014.6 |
| 20260510084555 | 62 | 0 | 0.0 | 0.0 | 0.00 | 0.00 | 0.00 | 94 | 1014.4 |
| 20260510083048 | 62 | 0 | 0.0 | 0.0 | 0.00 | 0.00 | 0.00 | 94 | 1014.2 |
| 20260510081547 | 62 | 0 | 0.0 | 0.0 | 0.00 | 0.00 | 0.00 | 93 | 1013.9 |
| 20260510080047 | 62 | 0 | 0.0 | 0.0 | 0.00 | 0.00 | 0.00 | 93 | 1013.8 |
| 20260510074549 | 62 | 0 | 0.0 | 0.0 | 0.00 | 0.00 | 0.00 | 93 | 1013.8 |
| 20260510073046 | 63 | 0 | 0.0 | 0.0 | 0.00 | 0.00 | 0.00 | 93 | 1013.7 |
| 20260510071543 | 63 | 0 | 0.0 | 0.0 | 0.00 | 0.00 | 0.00 | 92 | 1013.8 |
| 20260510070050 | 63 | 0 | 0.0 | 0.0 | 0.00 | 0.00 | 0.00 | 92 | 1013.8 |
| 20260510064605 | 63 | 0 | 0.0 | 0.0 | 0.00 | 0.00 | 0.00 | 92 | 1013.9 |
| 20260510063048 | 64 | 0 | 0.0 | 0.0 | 0.00 | 0.00 | 0.00 | 92 | 1013.9 |
| 20260510061550 | 64 | 0 | 0.0 | 0.0 | 0.00 | 0.00 | 0.00 | 92 | 1014.1 |
| 20260510060046 | 64 | 0 | 0.0 | 0.0 | 0.00 | 0.00 | 0.00 | 92 | 1014.1 |
| 20260510054544 | 64 | 0 | 0.0 | 0.0 | 0.00 | 0.00 | 0.00 | 91 | 1013.8 |
| 20260510053048 | 64 | 0 | 0.0 | 0.0 | 0.00 | 0.00 | 0.00 | 91 | 1013.8 |
| 20260510051547 | 64 | 0 | 0.0 | 0.0 | 0.00 | 0.00 | 0.00 | 91 | 1013.5 |
| 20260510050044 | 64 | 0 | 0.0 | 0.0 | 0.00 | 0.00 | 0.00 | 90 | 1013.4 |
| 20260510044553 | 64 | 0 | 0.0 | 0.0 | 0.00 | 0.00 | 0.00 | 90 | 1013.3 |
| 20260510043047 | 64 | 0 | 0.0 | 0.0 | 0.00 | 0.00 | 0.00 | 88 | 1013.4 |
| 20260510041559 | 64 | 0 | 0.0 | 0.0 | 0.00 | 0.00 | 0.00 | 88 | 1013.3 |
| 20260510040047 | 64 | 0 | 0.0 | 0.0 | 0.00 | 0.00 | 0.00 | 88 | 1013.2 |
| 20260510034557 | 65 | 0 | 0.0 | 0.0 | 0.00 | 0.00 | 0.00 | 88 | 1013.2 |
| 20260510033047 | 65 | 0 | 0.0 | 0.0 | 0.00 | 0.00 | 0.00 | 87 | 1013.2 |
| 20260510031551 | 65 | 0 | 0.0 | 0.0 | 0.00 | 0.00 | 0.00 | 86 | 1013.0 |
| 20260510030056 | 65 | 0 | 0.0 | 0.0 | 0.00 | 0.00 | 0.00 | 85 | 1012.9 |
| 20260510024552 | 66 | 0 | 0.0 | 0.0 | 0.00 | 0.00 | 0.00 | 84 | 1012.7 |
| 20260510023048 | 66 | 0 | 0.0 | 0.0 | 0.00 | 0.00 | 0.00 | 83 | 1012.5 |
| 20260510021548 | 67 | 0 | 0.0 | 0.0 | 0.00 | 0.00 | 0.00 | 82 | 1012.3 |
| 20260510020050 | 68 | 0 | 0.0 | 0.0 | 0.00 | 0.00 | 0.00 | 82 | 1012.2 |
| 20260510014547 | 69 | 0 | 0.0 | 0.0 | 0.00 | 0.00 | 0.00 | 80 | 1012.0 |
| 20260510013052 | 70 | 0 | 0.0 | 0.0 | 0.00 | 0.00 | 0.00 | 80 | 1011.9 |
| 20260510011545 | 71 | 0 | 0.0 | 0.0 | 0.00 | 0.00 | 0.00 | 79 | 1011.7 |
| 20260510010047 | 72 | 0 | 0.0 | 0.0 | 0.00 | 0.00 | 0.00 | 77 | 1011.6 |
| 20260510004547 | 73 | 0 | 0.0 | 0.0 | 0.00 | 0.00 | 0.00 | 76 | 1011.5 |
| 20260510003054 | 74 | 0 | 0.0 | 0.0 | 0.00 | 0.00 | 0.00 | 74 | 1011.2 |
| 20260510001549 | 76 | 0 | 0.0 | 1.0 | 0.00 | 0.00 | 0.00 | 73 | 1011.1 |
| 20260510000058 | 77 | 107 | 0.0 | 2.0 | 0.00 | 0.00 | 0.00 | 70 | 1011.0 |
| 20260509234602 | 78 | 0 | 0.0 | 2.0 | 0.00 | 0.00 | 0.00 | 68 | 1010.8 |
| 20260509233054 | 80 | 154 | 1.0 | 6.0 | 0.00 | 0.00 | 0.00 | 65 | 1010.7 |
| 20260509231604 | 80 | 0 | 0.0 | 4.0 | 0.00 | 0.00 | 0.00 | 62 | 1010.7 |
| 20260509230120 | 81 | 12 | 0.0 | 7.0 | 0.00 | 0.00 | 0.00 | 61 | 1010.6 |
| 20260509224546 | 82 | 5 | 0.0 | 4.0 | 0.00 | 0.00 | 0.00 | 62 | 1010.5 |
| 20260509223044 | 82 | 82 | 0.0 | 6.0 | 0.00 | 0.00 | 0.00 | 62 | 1010.4 |
| 20260509221544 | 82 | 157 | 0.0 | 3.0 | 0.00 | 0.00 | 0.00 | 60 | 1010.3 |
| 20260509220047 | 83 | 0 | 1.0 | 6.0 | 0.00 | 0.00 | 0.00 | 57 | 1010.3 |
| 20260509214546 | 83 | 84 | 0.0 | 4.0 | 0.00 | 0.00 | 0.00 | 56 | 1010.3 |
| 20260509213053 | 84 | 0 | 1.0 | 4.0 | 0.00 | 0.00 | 0.00 | 51 | 1010.2 |
| 20260509211552 | 83 | 134 | 0.0 | 3.0 | 0.00 | 0.00 | 0.00 | 52 | 1010.3 |
| 20260509210104 | 81 | 0 | 0.0 | 3.0 | 0.00 | 0.00 | 0.00 | 57 | 1010.5 |
| 20260509204545 | 82 | 0 | 0.0 | 4.0 | 0.00 | 0.00 | 0.00 | 54 | 1010.7 |
| 20260509203049 | 84 | 0 | 0.0 | 4.0 | 0.00 | 0.00 | 0.00 | 51 | 1010.7 |
| 20260509201555 | 83 | 190 | 0.0 | 4.0 | 0.00 | 0.00 | 0.00 | 51 | 1011.0 |
| 20260509200050 | 83 | 155 | 1.0 | 5.0 | 0.00 | 0.00 | 0.00 | 52 | 1011.1 |
| 20260509194548 | 82 | 0 | 0.0 | 5.0 | 0.00 | 0.00 | 0.00 | 56 | 1011.2 |
| 20260509193053 | 82 | 150 | 0.0 | 3.0 | 0.00 | 0.00 | 0.00 | 55 | 1011.4 |
| 20260509191546 | 82 | 124 | 1.0 | 5.0 | 0.00 | 0.00 | 0.00 | 56 | 1011.3 |
| 20260509190100 | 82 | 0 | 0.0 | 3.0 | 0.00 | 0.00 | 0.00 | 57 | 1011.4 |
| 20260509184546 | 81 | 0 | 0.0 | 4.0 | 0.00 | 0.00 | 0.00 | 55 | 1011.5 |
| 20260509183047 | 80 | 129 | 0.0 | 4.0 | 0.00 | 0.00 | 0.00 | 59 | 1011.6 |
| 20260509181549 | 80 | 5 | 1.0 | 7.0 | 0.00 | 0.00 | 0.00 | 58 | 1011.7 |
| 20260509180100 | 80 | 0 | 2.0 | 6.0 | 0.00 | 0.00 | 0.00 | 60 | 1011.7 |
| 20260509174545 | 80 | 243 | 1.0 | 7.0 | 0.00 | 0.00 | 0.00 | 60 | 1011.9 |
| 20260509173041 | 79 | 255 | 2.0 | 5.0 | 0.00 | 0.00 | 0.00 | 62 | 1012.0 |
| 20260509171548 | 79 | 101 | 1.0 | 8.0 | 0.00 | 0.00 | 0.00 | 62 | 1011.8 |
| 20260509170059 | 78 | 53 | 2.0 | 6.0 | 0.00 | 0.00 | 0.00 | 66 | 1012.0 |
| 20260509164615 | 78 | 71 | 2.0 | 7.0 | 0.00 | 0.00 | 0.00 | 68 | 1011.9 |
| 20260509163056 | 76 | 213 | 2.0 | 8.0 | 0.00 | 0.00 | 0.00 | 69 | 1011.8 |
| 20260509161552 | 75 | 0 | 2.0 | 10.0 | 0.00 | 0.00 | 0.00 | 70 | 1011.8 |
| 20260509160046 | 74 | 217 | 2.0 | 7.0 | 0.00 | 0.00 | 0.00 | 73 | 1012.0 |
| 20260509154550 | 73 | 262 | 1.0 | 6.0 | 0.00 | 0.00 | 0.00 | 76 | 1011.9 |
| 20260509153050 | 72 | 217 | 1.0 | 5.0 | 0.00 | 0.00 | 0.00 | 76 | 1011.8 |
| 20260509151547 | 71 | 205 | 2.0 | 4.0 | 0.00 | 0.00 | 0.00 | 76 | 1011.9 |
| 20260509150104 | 70 | 0 | 1.0 | 3.0 | 0.00 | 0.00 | 0.00 | 81 | 1011.9 |
| 20260509144548 | 68 | 0 | 1.0 | 4.0 | 0.00 | 0.00 | 0.00 | 81 | 1012.0 |
| 20260509143053 | 67 | 5 | 2.0 | 3.0 | 0.00 | 0.00 | 0.00 | 85 | 1012.0 |
| 20260509141546 | 65 | 0 | 0.0 | 2.0 | 0.00 | 0.00 | 0.00 | 90 | 1012.3 |
| 20260509134545 | 62 | 0 | 0.0 | 0.0 | 0.00 | 0.00 | 0.00 | 95 | 1012.5 |
| 20260509133058 | 61 | 0 | 0.0 | 1.0 | 0.00 | 0.00 | 0.00 | 96 | 1012.4 |